Tracking 22879 objects as of 21-Apr-2021
HD Live streaming from Space Station
objects crossing your sky now

DELTA 1 DEB

Track DELTA 1 DEB now!
10-day predictions


NORAD ID: 7488
Int'l Code: 1973-086FU
Perigee: 864.2 km
Apogee: 1,537.8 km
Inclination: 101.9 °
Period: 109.3 minutes
Semi major axis: 7572 km
RCS: 0.0562 m2 (small)
Launch date: November 6, 1973
Source: United States (US)
Launch site: AIR FORCE WESTERN TEST RANGE (AFWTR)

Note: This is SATELLITE DEBRIS
aabbcc
Your satellite tracking list
Your tracking list is empty




NASA's NSSDC Master Catalog

Two Line Element Set (TLE):
1 07488U 73086FU  21111.37661364  .00017952  00000-0  27810-1 0  9996
2 07488 101.9289 159.3453 0444758 208.4268 149.1912 13.17605119419006
Source of the keplerian elements: AFSPC